Regional Weather Roundup
Issued by NWS

Home | Current Version | Previous Version | Graphics & Text | Print | Product List | Glossary On
Versions: 1 2 3 4 5 6 7 8 9 10 11 12 13 14 15 16 17 18 19 20 21 22 23 24 25 26 27 28 29 30 31 32 33 34 35 36 37 38 39 40 41 42 43 44 45 46 47
000
ASUS45 KTFX 280310
RWRMT
MONTANA REGIONAL WEATHER ROUNDUP
NATIONAL WEATHER SERVICE GREAT FALLS MT
900 PM MDT MON JUL 27 2015

NOTE: "FAIR" INDICATES FEW OR NO CLOUDS BELOW 12000 FEET WITH NO
SIGNIFICANT WEATHER AND/OR OBSTRUCTIONS TO VISIBILITY.

MTZ001>007-043-280400-
WEST OF THE DIVIDE

CITY           SKY/WX    TMP DP  RH WIND       PRES   REMARKS
KALISPELL      CLOUDY    56  47  71 S8        30.05R
MISSOULA       CLOUDY    54  47  77 S5        30.12R
BUTTE          CLOUDY    46  42  86 W5        30.13R
MULLAN PASS    MOCLDY    42  36  79 NW6       30.16R
DEER LODGE       N/A     50  45  81 CALM      30.14R
EUREKA           N/A     57  48  72 CALM      30.06R
HAMILTON         N/A     52  45  76 S8        30.14R
LIBBY            N/A     55  50  82 S3        30.09R
PLAINS           N/A     59  44  57 CALM      30.09R
RONAN            N/A     50  47  89 E2        30.13R
$$

MTZ008-052>055-280400-
SOUTHWEST MONTANA

CITY           SKY/WX    TMP DP  RH WIND       PRES   REMARKS
BOZEMAN        CLOUDY    50  46  86 W6        30.09R
DILLON         CLOUDY    48  41  76 W15G23    30.12R
W YELLOWSTONE  CLOUDY    39  37  93 W8        30.17R
TWIN BRIDGES     N/A     52  43  71 W8        30.09R
$$

MTZ009-010-012-014-046-048-049-054-280400-
EAST SLOPES AND CENTRAL MONTANA

CITY           SKY/WX    TMP DP  RH WIND       PRES   REMARKS
CUT BANK       CLOUDY    53  47  79 W13       29.98R
GREAT FALLS    LGT RAIN  50  48  93 SW13      29.97F
MALMSTROM AFB  DRIZZLE   51  49  91 SW13      29.98F
HELENA         CLOUDY    53  44  71 W15       30.04R
CONRAD           N/A     54  53  96 W7        30.00S
$$

MTZ011-013-016-021-045-047-050-051-280400-
NORTH CENTRAL MONTANA

CITY           SKY/WX    TMP DP  RH WIND       PRES   REMARKS
HAVRE          LGT RAIN  57  52  83 W17       29.86F
LEWISTOWN      CLOUDY    52  47  83 W14       29.93S
CHINOOK          N/A     57  55  94 W12       29.82F
FORT BENTON      N/A     55  50  82 SW9       29.94F
$$

MTZ017>020-022>027-061-062-280400-
NORTHEAST MONTANA

CITY           SKY/WX    TMP DP  RH WIND       PRES   REMARKS
GLASGOW        CLOUDY    59  54  83 NW31G46   29.66R THUNDER
JORDAN           N/A     56  54  93 NW24G39   29.72F
SIDNEY         CLOUDY   N/A N/A N/A SE8       29.58R
WOLF POINT     CLOUDY    67  61  81 W28G33    29.59R
MALTA            N/A     57  53  86 SW16      29.73S
PLENTYWOOD       N/A     66  63  88 S28G35    29.53R
$$

MTZ028>42-056>058-280400-
SOUTHCENTRAL AND SOUTHEAST MONTANA

CITY           SKY/WX    TMP DP  RH WIND       PRES   REMARKS
BAKER          CLOUDY    60  55  83 W33G46    29.71R THUNDER
BILLINGS       MOCLDY    54  47  77 NW10      29.93R
LIVINGSTON     CLOUDY    50  43  77 W22G32    30.03R
MILES CITY     LGT RAIN  59  59 100 W12       29.78R
EKALAKA          N/A     56  51  83 W12       29.82R
FORSYTH          N/A     55  55 100 W12       29.80F
LAUREL           N/A     55  46  71 W15       29.92R
ROUNDUP          N/A     55  46  71 SW7       29.83R
$$

REGIONAL REPORTS...DAKOTAS

CITY           SKY/WX    TMP DP  RH WIND       PRES   REMARKS
WILLISTON      LGT RAIN  67  63  87 NW9       29.57R
MINOT          CLOUDY    81  69  67 SE14      29.59F
DICKINSON      CLOUDY    75  54  47 S25G38    29.61R
BEACH          FOG       64  64 100 SW30G49   29.71R THUNDER VSB 3/4
CROSBY         FAIR      75  75 100 E13       29.53S
BISMARCK       CLOUDY    83  71  67 S17       29.69R
GRAND FORKS    PTCLDY    79  72  79 SE10      29.74R
FARGO          CLEAR     81  71  71 SE13G18   29.76R
BUFFALO SD       N/A     71  57  61 SE25G41   29.58F
RAPID CITY     CLOUDY    66  63  90 NW13      29.70R
$$

REGIONAL REPORTS...WYOMING/IDAHO/WASHINGTON

CITY           SKY/WX    TMP DP  RH WIND       PRES   REMARKS
GILLETTE       CLEAR     56  47  71 NW20      29.89R
SHERIDAN       CLEAR     53  48  83 W13       29.92R
BUFFALO WY     CLEAR     52  48  86 N10       29.91R
CODY           PTCLDY    57  36  44 W18G31    29.99R
YELLOWSTONE LA   N/A     37  34  89 W13G18    30.20R WCI  29
IDAHO FALLS    CLOUDY    53  43  68 E13       30.16R
SALMON         MOCLDY    52  41  66 SW6       30.17R
BOISE          CLEAR     70  31  23 NW9       30.11R
SPOKANE        MOCLDY    69  38  32 SW7       30.07R
$$

REGIONAL REPORTS...ALBERTA

CITY           SKY/WX    TMP DP  RH WIND       PRES   REMARKS
EDMONTON       PTCLDY    64  48  55 W3        29.94R
CALGARY        PTCLDY    57  45  62 N6        30.02F
LETHBRIDGE     MOCLDY    55  52  88 W10       29.97S
MEDICINE HAT   LGT RAIN  59  55  88 NW15G26   29.86F
WATERTON GATE    N/A     50  45  81 SW9         N/A
CARDSTON         N/A     54  45  71 NW7         N/A
MILK RIVER       N/A     52  48  87 N12         N/A
ONEFOUR          N/A     54  52  94 W21         N/A
$$

REGIONAL REPORTS...SASKATCHEWAN

CITY           SKY/WX    TMP DP  RH WIND       PRES   REMARKS
SWIFT CURRENT  RAIN      59 N/A N/A NW18G24   29.75F
REGINA         TSTM      63  59  88 NE20      29.63F
SASKATOON      CLOUDY    61  61 100 N12       29.82F
CYPRESS HILLS    N/A     50  48  93 N9G17       N/A
VAL MARIE        N/A     55  52  88 N25G33      N/A
ASSINIBOIA       N/A     63  54  72 SW2         N/A
$$


USA.gov is the U.S. government's official web portal to all federal, state and local government web resources and services.